Weather in Mendeleevo

Russia / Perm Krai     58°10′10″N   54°59′38″E
temp.,
°C
wind,
m/s
gust,
m/s
humid.,
%
clouds,
%
prec.,
mm/h
press.,
hPa
HPBL,
m
9 may, sun
sun923:00+10se11885 0.0 101711
02:00+10ese00875 0.0 101710
05:00+9ese11885 0.0 101710
08:00+13ese12720 0.0 1017153
11:00+18sse23530 0.0 1017844
14:00+21sse46382 0.0 10162128
17:00+22s353329 0.0 10162476
20:00+18sse224961 0.0 101723
10 may, mon
mon1023:00+15se355829 0.0 101895
02:00+12se226946 0.0 101924
05:00+11se227427 0.0 102020
08:00+14sse35631 0.0 1021198
11:00+20s35425 0.0 1021872
14:00+23s353116 0.0 10212668
17:00+23sw3431100 0.0 10222526
20:00+20sw114895 0.0 102219
11 may, tue
tue1123:00+16nne396998 0.0 1024231
02:00+14nnw3677100 0.0 1025203
05:00+13ne3982100 0.0 1026280
08:00+15ne367467 0.0 1027405
11:00+18nne226485 0.0 1028951
14:00+19n326044 0.0 10281135
17:00+20nnw335330 0.1 10281376
20:00+18n356746 0.0 1029303
12 may, wed
wed1223:00+14nne2278100 0.0 102915
02:00+12ne228098 0.0 103115
05:00+11nne117732 0.0 103110
08:00+14nne23605 0.0 1032222
11:00+19n11385 0.0 1031758
14:00+22nw213230 0.0 10301145
17:00+23nw2233100 0.0 10301434
20:00+20w1147100 0.0 102911
13 may, thu
thu1323:00+16nnw005523 0.0 103011
02:00+14nw00615 0.0 103010
05:00+12w11675 0.0 103010
08:00+17wnw11575 0.0 1031128
11:00+22wnw12412 0.0 1030781
14:00+25wnw22350 0.0 10291558
17:00+26wnw12323 0.0 10281800
20:00+23ene01440 0.0 102811